You are listening to:
KSAR CTAF - Sparta, Illinois, United States

KSAR 241722Z AUTO 18003KT 10SM OVC008 04/03 A3006 RMK AO2

If stream doesn't start automatically press the play button
If stream stops then reload player then press play